Location: Foligno
(42.9600°N, 12.7050°E)
Time: 10:51:24
(UTC+02:00)

ISS - Pass Details

Date: 05 May 2021
Orbit: 417 x 422 km, 51.6° (Epoch: 15 May)

Event Time Altitude Azimuth Distance (km) Brightness Sun altitude
Exits shadow 05:07:07 - 293° (WNW) 2,337 -0.3 -9.0°
Reaches altitude 10° 05:09:35 10° 312° (NW) 1,506 -1.1 -8.6°
Maximum altitude 05:12:02 18° 359° (N) 1,099 -1.2 -8.3°
Drops below altitude 10° 05:14:29 10° 45° (NE) 1,507 0.6 -7.9°
Sets 05:17:03 0° 65° (ENE) 2,373 2.5 -7.5°
